This demonstration page uses our WeatherBlox Daily Observations layout. Learn more.

Left ArrowRight Arrow

Hourly Observations for January 5, 2017

Temp ( °F °C ) Dew Point ( °F °C ) Humidity (%) Winds ( mph kmh ) Pressure ( in mb ) Visibility ( mi km ) Precip ( " mm )
12:58 am 00:58 Clear 6 -14.7 3 -16 90 90 Calm 30.26 1025 10 16 0.00 0.00
1:58 am 01:58 Cloudy 7 -13.7 5 -14.9 91 91 WNW 3 6 30.25 1024 10 16 0.00 0.00
2:58 am 02:58 Mostly Cloudy 9 -12.9 6 -14.2 90 90 WNW 6 9 30.24 1024 10 16 0.00 0.00
3:58 am 03:58 Mostly Clear 9 -13 6 -14.4 89 89 WNW 6 9 30.23 1024 10 16 0.00 0.00
4:58 am 04:58 Clear 10 -12.5 6 -14.4 86 86 NW 6 9 30.22 1023 10 16 0.00 0.00
5:58 am 05:58 Clear 9 -12.7 3 -16.2 75 75 NNW 8 13 30.22 1023 10 16 0.00 0.00
6:58 am 06:58 Mostly Clear 9 -13 2 -16.5 75 75 NW 9 15 30.24 1024 10 16 0.00 0.00
7:58 am 07:58 Partly Cloudy 7 -13.7 1 -17.1 76 76 NW 7 11 30.28 1026 10 16 0.00 0.00
9:58 am 09:58 Sunny 8 -13.2 0 -17.9 68 68 NW 14 22 30.28 1025 10 16 0.00 0.00
10:58 am 10:58 Sunny 9 -12.7 -1 -18.3 63 63 NW 12 19 30.29 1026 10 16 0.00 0.00
11:58 am 11:58 Partly Cloudy 10 -12.2 0 -17.8 63 63 NW 15 24 30.27 1025 10 16 0.00 0.00
12:58 pm 12:58 Mostly Cloudy 11 -11.9 1 -17.5 63 63 NNW 13 20 30.26 1025 10 16 0.00 0.00
1:58 pm 13:58 Mostly Cloudy 11 -11.9 -1 -18.1 60 60 NNW 14 22 30.25 1024 10 16 0.00 0.00
2:58 pm 14:58 Cloudy 10 -12.1 -1 -18.5 59 59 NW 14 22 30.26 1025 10 16 0.00 0.00
3:58 pm 15:58 Cloudy 10 -12.3 -1 -18.5 60 60 NNW 14 22 30.27 1025 10 16 0.00 0.00
4:27 pm 16:27 Cloudy with Light Snow 10 -12 0 -18 61 61 NW 12 19 30.33 1027 10 16 0.00 0.00
4:55 pm 16:55 Cloudy 9 -13 1 -17 72 72 NW 10 17 30.33 1027 10 16 0.00 0.00
4:58 pm 16:58 Cloudy 9 -12.7 1 -17.5 68 68 NW 9 15 30.28 1026 10 16 0.00 0.00
5:58 pm 17:58 Partly Cloudy 8 -13.3 0 -17.9 69 69 NW 9 15 30.29 1026 10 16 0.00 0.00
6:58 pm 18:58 Clear 4 -15.6 -1 -18.3 80 80 NW 6 9 30.30 1026 10 16 0.00 0.00
7:58 pm 19:58 Clear 3 -16.1 -1 -18.6 81 81 WNW 6 9 30.30 1026 10 16 0.00 0.00
8:58 pm 20:58 Clear 5 -15.2 0 -17.9 80 80 SW 5 7 30.33 1027 10 16 0.00 0.00
9:58 pm 21:58 Clear 1 -17 -3 -19.7 80 80 NW 8 13 30.32 1027 10 16 0.00 0.00
10:58 pm 22:58 Clear 4 -15.5 -3 -19.5 72 72 NW 7 11 30.32 1027 10 16 0.00 0.00
11:58 pm 23:58 Clear 2 -16.7 -4 -20 76 76 WNW 5 7 30.32 1027 10 16 0.00 0.00

Powered by AerisWeather